User: anonymous   Login
Location: Bergen
(60.3910°N, 5.3250°E)
Time: 13:26:08
(UTC+01:00)
Language:

Cosmos 1943 - Orbit

View from above orbital plane
View from above orbital plane
View from above satellite
View from above satellite

Ground track
Ground track

The orbit data is extracted from the following two-line orbital elements,

1 19119U 88039A   15058.87985039 -.00000196  00000-0 -76746-4 0  9999
2 19119 071.0019 066.3148 0014049 258.0129 170.0254 14.14993923383226
Epoch (UTC): 27 February 2015 21:06:59
Eccentricity: 0.0014049
inclination: 71.0019°
perigee height: 832 km
apogee height: 852 km
right ascension of ascending node: 66.3148°
argument of perigee: 258.0129°
revolutions per day: 14.14993923
mean anomaly at epoch: 170.0254°
orbit number at epoch: 38322

The dashed part of the orbit path shows where the satellite is in the earth's shadow,  

DLR